HAZ1049 RCTP-VHHH

Flight info

Callsign HAZ1049
Flight time 2h 20m
Altitude 36000
Route CHALI T3 MKG A1 ELATO V522 ABBEY
Aircraft B738/M-SDE2E3FGHIRWXY/LB1

Departure

Time 2026-05-07 17:24
Airport Taiwan Taoyuan International Airport (RCTP)

Arrival

Time 2026-05-07 19:44
Airport Hong Kong International Airport (VHHH)
Time Latitude Longitude Altitude Speed Heading
2026-05-07 16:59 25.07782 121.23658 115 ft 0 kts 321°
2026-05-07 17:09 25.07782 121.23659 115 ft 0 kts 321°
2026-05-07 17:09 25.07771 121.23668 115 ft 2 kts 321°
2026-05-07 17:10 25.07759 121.23679 115 ft 2 kts 321°
2026-05-07 17:10 25.07748 121.23689 115 ft 2 kts 321°
2026-05-07 17:10 25.07736 121.23699 115 ft 2 kts 321°
2026-05-07 17:10 25.07724 121.23709 115 ft 1 kts 321°
2026-05-07 17:11 25.07716 121.23716 115 ft 2 kts 316°
2026-05-07 17:11 25.07708 121.23730 115 ft 2 kts 292°
2026-05-07 17:11 25.07704 121.23746 115 ft 2 kts 273°
2026-05-07 17:11 25.07705 121.23762 115 ft 2 kts 254°
2026-05-07 17:12 25.07711 121.23777 115 ft 1 kts 234°
2026-05-07 17:12 25.07715 121.23783 115 ft 1 kts 227°
2026-05-07 17:12 25.07717 121.23785 115 ft 0 kts 229°
2026-05-07 17:14 25.07708 121.23774 115 ft 4 kts 229°
2026-05-07 17:15 25.07677 121.23732 115 ft 9 kts 229°
2026-05-07 17:15 25.07619 121.23688 115 ft 9 kts 183°
2026-05-07 17:15 25.07565 121.23722 115 ft 9 kts 136°
2026-05-07 17:15 25.07521 121.23767 115 ft 8 kts 134°
2026-05-07 17:16 25.07502 121.23820 115 ft 7 kts 80°
2026-05-07 17:16 25.07526 121.23868 115 ft 6 kts 49°
2026-05-07 17:16 25.07556 121.23904 115 ft 6 kts 51°
2026-05-07 17:16 25.07583 121.23939 115 ft 6 kts 49°
2026-05-07 17:17 25.07625 121.23993 115 ft 12 kts 49°
2026-05-07 17:17 25.07694 121.24081 115 ft 17 kts 49°
2026-05-07 17:17 25.07784 121.24196 115 ft 19 kts 47°
2026-05-07 17:17 25.07875 121.24307 115 ft 19 kts 46°
2026-05-07 17:18 25.07964 121.24413 115 ft 18 kts 47°
2026-05-07 17:18 25.08046 121.24516 115 ft 17 kts 50°
2026-05-07 17:18 25.08123 121.24616 115 ft 16 kts 49°
2026-05-07 17:18 25.08197 121.24712 115 ft 15 kts 46°
2026-05-07 17:19 25.08278 121.24792 115 ft 15 kts 38°
2026-05-07 17:19 25.08335 121.24858 115 ft 7 kts 70°
2026-05-07 17:19 25.08354 121.24912 115 ft 7 kts 62°
2026-05-07 17:19 25.08385 121.24954 115 ft 6 kts 48°
2026-05-07 17:20 25.08414 121.24991 115 ft 6 kts 48°
2026-05-07 17:20 25.08440 121.25025 115 ft 5 kts 56°
2026-05-07 17:20 25.08446 121.25061 115 ft 4 kts 103°
2026-05-07 17:20 25.08433 121.25090 115 ft 3 kts 142°
2026-05-07 17:21 25.08414 121.25106 115 ft 2 kts 142°
2026-05-07 17:21 25.08401 121.25118 115 ft 1 kts 143°
2026-05-07 17:21 25.08399 121.25119 115 ft 0 kts 143°
2026-05-07 17:22 25.08396 121.25121 115 ft 2 kts 143°
2026-05-07 17:22 25.08371 121.25146 115 ft 7 kts 137°
2026-05-07 17:22 25.08327 121.25172 115 ft 6 kts 172°
2026-05-07 17:23 25.08288 121.25150 115 ft 6 kts 231°
2026-05-07 17:23 25.08260 121.25114 115 ft 7 kts 229°
2026-05-07 17:23 25.08191 121.25028 115 ft 23 kts 229°
2026-05-07 17:23 25.07929 121.24696 115 ft 92 kts 229°
2026-05-07 17:24 25.07359 121.23964 115 ft 153 kts 228°
2026-05-07 17:24 25.06533 121.22954 195 ft 194 kts 228°
2026-05-07 17:24 25.05636 121.21911 1051 ft 184 kts 224°
2026-05-07 17:24 25.04700 121.20902 1586 ft 199 kts 229°
2026-05-07 17:25 25.03822 121.19664 2135 ft 214 kts 234°
2026-05-07 17:25 25.02995 121.18308 3029 ft 212 kts 236°
2026-05-07 17:25 25.02061 121.17057 3739 ft 219 kts 224°
2026-05-07 17:25 25.00980 121.15801 4303 ft 234 kts 236°
2026-05-07 17:26 25.00345 121.14134 5071 ft 240 kts 259°
2026-05-07 17:26 25.00547 121.12291 5750 ft 254 kts 295°
2026-05-07 17:26 25.01728 121.10825 6454 ft 267 kts 324°
2026-05-07 17:26 25.03357 121.09747 7184 ft 276 kts 325°
2026-05-07 17:27 25.04867 121.08478 7988 ft 278 kts 314°
2026-05-07 17:27 25.06167 121.06890 8856 ft 279 kts 305°
2026-05-07 17:27 25.07265 121.05153 9700 ft 281 kts 301°
2026-05-07 17:27 25.08304 121.03299 10491 ft 285 kts 299°
2026-05-07 17:28 25.09341 121.01390 11030 ft 298 kts 299°
2026-05-07 17:28 25.10361 120.99355 11544 ft 310 kts 292°
2026-05-07 17:28 25.11005 120.97022 12007 ft 323 kts 277°
2026-05-07 17:28 25.10983 120.94521 12446 ft 336 kts 261°
2026-05-07 17:29 25.10354 120.91964 12837 ft 351 kts 249°
2026-05-07 17:29 25.09134 120.89568 13273 ft 365 kts 233°
2026-05-07 17:29 25.07414 120.87501 13904 ft 371 kts 227°
2026-05-07 17:29 25.05524 120.85498 14569 ft 375 kts 225°
2026-05-07 17:30 25.03620 120.83540 15216 ft 378 kts 225°
2026-05-07 17:30 25.01668 120.81527 15849 ft 382 kts 225°
2026-05-07 17:30 24.99740 120.79512 16462 ft 385 kts 226°
2026-05-07 17:30 24.97799 120.77458 17089 ft 388 kts 226°
2026-05-07 17:31 24.95859 120.75388 17675 ft 390 kts 226°
2026-05-07 17:31 24.93898 120.73285 18273 ft 393 kts 226°
2026-05-07 17:31 24.91911 120.71149 18803 ft 398 kts 226°
2026-05-07 17:31 24.89936 120.69025 19363 ft 400 kts 226°
2026-05-07 17:32 24.87947 120.66890 19929 ft 403 kts 227°
2026-05-07 17:32 24.85920 120.64716 20412 ft 407 kts 226°
2026-05-07 17:32 24.83868 120.62517 20958 ft 409 kts 227°
2026-05-07 17:32 24.81871 120.60379 21434 ft 412 kts 227°
2026-05-07 17:33 24.79796 120.58157 21918 ft 415 kts 227°
2026-05-07 17:33 24.77719 120.55935 22413 ft 418 kts 227°
2026-05-07 17:33 24.75615 120.53687 22859 ft 422 kts 227°
2026-05-07 17:33 24.73529 120.51533 23274 ft 426 kts 224°
2026-05-07 17:34 24.71245 120.49477 23740 ft 430 kts 221°
2026-05-07 17:34 24.68785 120.47488 24174 ft 435 kts 219°
2026-05-07 17:34 24.66297 120.45586 24622 ft 438 kts 218°
2026-05-07 17:34 24.63754 120.43689 25087 ft 440 kts 217°
2026-05-07 17:35 24.61206 120.41802 25481 ft 444 kts 217°
2026-05-07 17:35 24.58636 120.39899 25901 ft 447 kts 217°
2026-05-07 17:35 24.56066 120.37988 26359 ft 448 kts 218°
2026-05-07 17:35 24.53469 120.36050 26770 ft 451 kts 218°
2026-05-07 17:36 24.50845 120.34086 27172 ft 454 kts 217°
2026-05-07 17:36 24.48250 120.32137 27577 ft 456 kts 217°
2026-05-07 17:36 24.46487 120.30810 27802 ft 459 kts 217°
2026-05-07 17:36 24.43965 120.28906 28179 ft 461 kts 218°
2026-05-07 17:37 24.41720 120.27185 28507 ft 462 kts 218°
2026-05-07 17:37 24.39078 120.25140 28948 ft 463 kts 218°
2026-05-07 17:37 24.36423 120.23074 29538 ft 460 kts 219°
2026-05-07 17:37 24.33839 120.21061 30075 ft 459 kts 219°
2026-05-07 17:38 24.31215 120.19016 30570 ft 458 kts 219°
2026-05-07 17:38 24.28620 120.16996 31001 ft 458 kts 219°
2026-05-07 17:38 24.25998 120.14956 31477 ft 457 kts 219°
2026-05-07 17:38 24.23431 120.12962 31872 ft 457 kts 219°
2026-05-07 17:39 24.20807 120.10927 32305 ft 457 kts 219°
2026-05-07 17:39 24.18209 120.08913 32759 ft 455 kts 219°
2026-05-07 17:39 24.15637 120.06923 33225 ft 454 kts 219°
2026-05-07 17:39 24.13028 120.04904 33630 ft 454 kts 219°
2026-05-07 17:40 24.10412 120.02884 34136 ft 452 kts 220°
2026-05-07 17:40 24.07838 120.00897 34561 ft 451 kts 220°
2026-05-07 17:40 24.05220 119.98875 34843 ft 453 kts 220°
2026-05-07 17:40 24.02792 119.97000 35223 ft 452 kts 220°
2026-05-07 17:41 24.00203 119.95002 35523 ft 453 kts 220°
2026-05-07 17:41 23.97563 119.92968 35870 ft 453 kts 220°
2026-05-07 17:41 23.92556 119.89111 35905 ft 455 kts 220°
2026-05-07 17:42 23.87333 119.85098 35906 ft 454 kts 220°
2026-05-07 17:42 23.82233 119.81178 35906 ft 454 kts 221°
2026-05-07 17:43 23.77042 119.77195 35912 ft 454 kts 220°
2026-05-07 17:43 23.71833 119.73202 35913 ft 454 kts 221°
2026-05-07 17:44 23.66629 119.69213 35919 ft 455 kts 220°
2026-05-07 17:44 23.61568 119.65099 35920 ft 450 kts 227°
2026-05-07 17:45 23.57407 119.60051 35921 ft 442 kts 239°
2026-05-07 17:45 23.53957 119.54459 35920 ft 439 kts 243°
2026-05-07 17:46 23.50725 119.48809 35916 ft 437 kts 243°
2026-05-07 17:46 23.47490 119.43124 35921 ft 439 kts 243°
2026-05-07 17:47 23.44242 119.37468 35921 ft 439 kts 243°
2026-05-07 17:47 23.40969 119.31812 35923 ft 439 kts 243°
2026-05-07 17:48 23.37699 119.26183 35925 ft 439 kts 242°
2026-05-07 17:48 23.34415 119.20548 35926 ft 439 kts 242°
2026-05-07 17:49 23.31145 119.14946 35925 ft 438 kts 242°
2026-05-07 17:49 23.27848 119.09302 35926 ft 438 kts 242°
2026-05-07 17:50 23.24563 119.03684 35926 ft 440 kts 242°
2026-05-07 17:50 23.21258 118.98038 35926 ft 437 kts 242°
2026-05-07 17:51 23.17975 118.92442 35926 ft 439 kts 242°
2026-05-07 17:51 23.14661 118.86791 35919 ft 440 kts 242°
2026-05-07 17:52 23.11354 118.81162 35909 ft 440 kts 242°
2026-05-07 17:52 23.08036 118.75520 35905 ft 440 kts 242°
2026-05-07 17:53 23.04724 118.69894 35905 ft 440 kts 242°
2026-05-07 17:53 23.01416 118.64281 35905 ft 441 kts 242°
2026-05-07 17:54 22.98089 118.58641 35904 ft 441 kts 242°
2026-05-07 17:54 22.94759 118.53004 35905 ft 441 kts 242°
2026-05-07 17:55 22.91423 118.47384 35905 ft 442 kts 242°
2026-05-07 17:55 22.88079 118.41772 35905 ft 441 kts 242°
2026-05-07 17:56 22.84707 118.36118 35905 ft 443 kts 242°
2026-05-07 17:56 22.81357 118.30505 35905 ft 444 kts 242°
2026-05-07 17:57 22.78525 118.25764 35905 ft 444 kts 242°
2026-05-07 17:57 22.74603 118.19202 35905 ft 446 kts 241°
2026-05-07 17:58 22.71215 118.13541 35905 ft 445 kts 241°
2026-05-07 17:58 22.67837 118.07903 35905 ft 445 kts 242°
2026-05-07 17:59 22.64440 118.02237 35905 ft 445 kts 241°
2026-05-07 17:59 22.61062 117.96611 35905 ft 444 kts 242°
2026-05-07 18:00 22.57693 117.90977 35905 ft 446 kts 242°
2026-05-07 18:00 22.54307 117.85274 35901 ft 445 kts 242°
2026-05-07 18:01 22.50954 117.79627 35897 ft 444 kts 241°
2026-05-07 18:01 22.47594 117.73978 35896 ft 445 kts 242°
2026-05-07 18:02 22.42545 117.65504 35900 ft 447 kts 242°
2026-05-07 18:03 22.39163 117.59841 35908 ft 445 kts 241°
2026-05-07 18:03 22.35856 117.54196 35910 ft 443 kts 245°
2026-05-07 18:04 22.33689 117.48009 35911 ft 436 kts 262°
2026-05-07 18:04 22.33019 117.41557 35912 ft 431 kts 270°
2026-05-07 18:05 22.32888 117.35038 35911 ft 431 kts 272°
2026-05-07 18:05 22.32844 117.28546 35911 ft 432 kts 272°
2026-05-07 18:06 22.32776 117.22051 35911 ft 431 kts 271°
2026-05-07 18:06 22.32679 117.15564 35912 ft 432 kts 271°
2026-05-07 18:07 22.32563 117.09033 35913 ft 431 kts 271°
2026-05-07 18:07 22.32438 117.02557 35906 ft 433 kts 271°
2026-05-07 18:08 22.32307 116.96009 35898 ft 432 kts 271°
2026-05-07 18:08 22.32174 116.89523 35893 ft 431 kts 271°
2026-05-07 18:09 22.32038 116.83024 35892 ft 434 kts 271°
2026-05-07 18:09 22.31899 116.76513 35895 ft 433 kts 271°
2026-05-07 18:10 22.31757 116.70029 35896 ft 433 kts 271°
2026-05-07 18:10 22.31612 116.63519 35897 ft 432 kts 271°
2026-05-07 18:11 22.31465 116.57027 35896 ft 432 kts 271°
2026-05-07 18:11 22.31314 116.50500 35898 ft 431 kts 271°
2026-05-07 18:12 22.31162 116.44005 35903 ft 431 kts 271°
2026-05-07 18:12 22.31009 116.37517 35905 ft 432 kts 271°
2026-05-07 18:13 22.30854 116.31121 35905 ft 432 kts 271°
2026-05-07 18:13 22.30695 116.24619 35905 ft 432 kts 271°
2026-05-07 18:14 22.30538 116.18321 35905 ft 432 kts 271°
2026-05-07 18:14 22.30373 116.11812 35905 ft 431 kts 271°
2026-05-07 18:15 22.30204 116.05293 35886 ft 431 kts 271°
2026-05-07 18:15 22.30129 116.02398 35617 ft 426 kts 271°
2026-05-07 18:15 22.30044 115.99211 35163 ft 420 kts 271°
2026-05-07 18:15 22.29959 115.96049 34545 ft 421 kts 271°
2026-05-07 18:16 22.29875 115.92905 33842 ft 421 kts 271°
2026-05-07 18:16 22.29791 115.89749 33101 ft 422 kts 271°
2026-05-07 18:16 22.29707 115.86567 32362 ft 422 kts 270°
2026-05-07 18:16 22.29622 115.83407 31602 ft 423 kts 270°
2026-05-07 18:17 22.29537 115.80208 30803 ft 425 kts 270°
2026-05-07 18:17 22.29453 115.77021 29975 ft 427 kts 270°
2026-05-07 18:17 22.29369 115.73822 29125 ft 429 kts 270°
2026-05-07 18:17 22.29285 115.70592 28261 ft 432 kts 270°
2026-05-07 18:18 22.29200 115.67346 27524 ft 431 kts 270°
2026-05-07 18:18 22.29115 115.64099 27026 ft 440 kts 270°
2026-05-07 18:18 22.29027 115.60758 26432 ft 446 kts 270°
2026-05-07 18:18 22.28937 115.57431 25817 ft 441 kts 270°
2026-05-07 18:19 22.28845 115.54131 25226 ft 436 kts 270°
2026-05-07 18:19 22.28755 115.50886 24628 ft 431 kts 270°
2026-05-07 18:19 22.28664 115.47664 24027 ft 426 kts 270°
2026-05-07 18:19 22.28574 115.44493 23437 ft 422 kts 270°
2026-05-07 18:20 22.28486 115.41354 22860 ft 417 kts 270°
2026-05-07 18:20 22.28397 115.38252 22278 ft 413 kts 270°
2026-05-07 18:20 22.28308 115.35139 21695 ft 409 kts 270°
2026-05-07 18:20 22.28221 115.32091 21110 ft 406 kts 269°
2026-05-07 18:21 22.28131 115.29054 20534 ft 403 kts 269°
2026-05-07 18:21 22.28057 115.26585 20061 ft 400 kts 269°
2026-05-07 18:21 22.27966 115.23605 19482 ft 397 kts 269°
2026-05-07 18:21 22.27876 115.20667 18910 ft 393 kts 269°
2026-05-07 18:22 22.27786 115.17737 18340 ft 390 kts 269°
2026-05-07 18:22 22.27725 115.15765 17950 ft 388 kts 269°
2026-05-07 18:22 22.27621 115.12386 17285 ft 383 kts 268°
2026-05-07 18:22 22.27541 115.09822 16774 ft 381 kts 268°
2026-05-07 18:23 22.27448 115.06835 16164 ft 377 kts 268°
2026-05-07 18:23 22.27358 115.04002 15594 ft 374 kts 268°
2026-05-07 18:23 22.27270 115.01228 15020 ft 371 kts 268°
2026-05-07 18:23 22.27185 114.98576 14476 ft 368 kts 268°
2026-05-07 18:24 22.27096 114.95818 13907 ft 365 kts 268°
2026-05-07 18:24 22.27007 114.93068 13326 ft 368 kts 268°
2026-05-07 18:24 22.26918 114.90322 12751 ft 366 kts 268°
2026-05-07 18:24 22.26828 114.87584 12175 ft 363 kts 268°
2026-05-07 18:25 22.26738 114.84859 11602 ft 359 kts 268°
2026-05-07 18:25 22.26648 114.82167 11153 ft 352 kts 268°
2026-05-07 18:25 22.26454 114.79922 10944 ft 341 kts 261°
2026-05-07 18:25 22.25647 114.77348 10906 ft 329 kts 240°
2026-05-07 18:26 22.24186 114.75462 10917 ft 330 kts 225°
2026-05-07 18:26 22.22482 114.73762 10907 ft 331 kts 224°
2026-05-07 18:26 22.20778 114.72108 10908 ft 330 kts 223°
2026-05-07 18:26 22.19082 114.70438 10881 ft 331 kts 224°
2026-05-07 18:27 22.17368 114.68716 10638 ft 331 kts 225°
2026-05-07 18:27 22.15696 114.67014 10401 ft 328 kts 225°
2026-05-07 18:27 22.14027 114.65301 10160 ft 327 kts 225°
2026-05-07 18:27 22.12379 114.63604 9922 ft 326 kts 225°
2026-05-07 18:28 22.10751 114.61931 9680 ft 318 kts 225°
2026-05-07 18:28 22.09158 114.60297 9437 ft 309 kts 225°
2026-05-07 18:28 22.07615 114.58715 9197 ft 300 kts 225°
2026-05-07 18:28 22.06124 114.57185 8958 ft 293 kts 225°
2026-05-07 18:29 22.04662 114.55686 8717 ft 285 kts 225°
2026-05-07 18:29 22.03270 114.54256 8484 ft 279 kts 226°
2026-05-07 18:29 22.02058 114.52691 8245 ft 274 kts 239°
2026-05-07 18:29 22.01221 114.50851 8013 ft 273 kts 249°
2026-05-07 18:30 22.00536 114.48930 7773 ft 273 kts 250°
2026-05-07 18:30 21.99861 114.47008 7535 ft 272 kts 250°
2026-05-07 18:30 21.99172 114.45120 7296 ft 271 kts 249°
2026-05-07 18:30 21.98458 114.43224 7053 ft 271 kts 248°
2026-05-07 18:31 21.97740 114.41345 6811 ft 270 kts 248°
2026-05-07 18:31 21.97030 114.39499 6574 ft 267 kts 248°
2026-05-07 18:31 21.96318 114.37650 6334 ft 267 kts 248°
2026-05-07 18:31 21.95603 114.35791 6092 ft 267 kts 248°
2026-05-07 18:32 21.94894 114.33942 5851 ft 266 kts 248°
2026-05-07 18:32 21.94183 114.32090 5608 ft 266 kts 248°
2026-05-07 18:32 21.93473 114.30241 5366 ft 265 kts 248°
2026-05-07 18:32 21.92767 114.28401 5125 ft 265 kts 248°
2026-05-07 18:33 21.92091 114.26642 4922 ft 263 kts 248°
2026-05-07 18:33 21.91529 114.25178 4907 ft 262 kts 248°
2026-05-07 18:33 21.90828 114.23352 4902 ft 265 kts 248°
2026-05-07 18:33 21.90128 114.21507 4902 ft 264 kts 250°
2026-05-07 18:34 21.89728 114.19920 4898 ft 264 kts 263°
2026-05-07 18:34 21.89896 114.17945 4902 ft 265 kts 290°
2026-05-07 18:34 21.90731 114.16186 4982 ft 266 kts 300°
2026-05-07 18:34 21.91675 114.14466 4978 ft 264 kts 300°
2026-05-07 18:35 21.92602 114.12734 4984 ft 264 kts 299°
2026-05-07 18:35 21.93498 114.11018 4983 ft 263 kts 298°
2026-05-07 18:35 21.94392 114.09286 4985 ft 263 kts 298°
2026-05-07 18:35 21.95280 114.07561 4986 ft 263 kts 298°
2026-05-07 18:36 21.96176 114.05824 4986 ft 263 kts 298°
2026-05-07 18:36 21.97068 114.04096 4986 ft 263 kts 299°
2026-05-07 18:36 21.97954 114.02380 4986 ft 263 kts 299°
2026-05-07 18:36 21.98851 114.00642 4987 ft 263 kts 299°
2026-05-07 18:37 21.99745 113.98909 4986 ft 263 kts 299°
2026-05-07 18:37 22.00640 113.97175 4989 ft 264 kts 299°
2026-05-07 18:37 22.01501 113.95504 4991 ft 249 kts 298°
2026-05-07 18:37 22.02283 113.93989 4983 ft 233 kts 298°
2026-05-07 18:38 22.03045 113.92510 4987 ft 217 kts 298°
2026-05-07 18:38 22.03760 113.91122 4989 ft 204 kts 298°
2026-05-07 18:38 22.04448 113.89785 4991 ft 204 kts 298°
2026-05-07 18:38 22.05141 113.88439 4989 ft 205 kts 298°
2026-05-07 18:39 22.05832 113.87101 4991 ft 205 kts 298°
2026-05-07 18:39 22.06532 113.85744 4996 ft 202 kts 298°
2026-05-07 18:39 22.07197 113.84452 4989 ft 192 kts 298°
2026-05-07 18:39 22.07841 113.83200 4996 ft 193 kts 299°
2026-05-07 18:40 22.08498 113.81923 4997 ft 195 kts 299°
2026-05-07 18:40 22.09165 113.80625 4998 ft 195 kts 298°
2026-05-07 18:40 22.09823 113.79347 4994 ft 194 kts 298°
2026-05-07 18:40 22.10493 113.78091 4997 ft 194 kts 303°
2026-05-07 18:41 22.11077 113.77342 4996 ft 196 kts 321°
2026-05-07 18:41 22.12396 113.76613 4999 ft 196 kts 340°
2026-05-07 18:41 22.13685 113.76086 4996 ft 198 kts 336°
2026-05-07 18:41 22.14940 113.75485 4995 ft 195 kts 334°
2026-05-07 18:42 22.16186 113.74852 4997 ft 196 kts 334°
2026-05-07 18:42 22.17432 113.74220 4998 ft 196 kts 334°
2026-05-07 18:42 22.18669 113.73604 4996 ft 195 kts 334°
2026-05-07 18:42 22.19899 113.72993 4997 ft 194 kts 335°
2026-05-07 18:43 22.21194 113.72553 4994 ft 195 kts 356°
2026-05-07 18:43 22.22492 113.72882 5002 ft 197 kts 31°
2026-05-07 18:43 22.23608 113.73749 4997 ft 197 kts 37°
2026-05-07 18:43 22.24718 113.74609 4996 ft 195 kts 33°
2026-05-07 18:44 22.25874 113.75432 4995 ft 195 kts 34°
2026-05-07 18:44 22.26869 113.76410 4993 ft 196 kts 58°
2026-05-07 18:44 22.27372 113.77771 5000 ft 195 kts 76°
2026-05-07 18:44 22.27727 113.79181 4996 ft 196 kts 73°
2026-05-07 18:45 22.28152 113.80598 4997 ft 196 kts 71°
2026-05-07 18:45 22.28603 113.81986 4997 ft 196 kts 71°
2026-05-07 18:45 22.29052 113.83359 4999 ft 195 kts 71°
2026-05-07 18:45 22.29501 113.84753 4997 ft 196 kts 71°
2026-05-07 18:46 22.29956 113.86166 4998 ft 196 kts 71°
2026-05-07 18:46 22.30404 113.87554 4998 ft 194 kts 71°
2026-05-07 18:46 22.30849 113.88930 4998 ft 196 kts 71°
2026-05-07 18:46 22.31301 113.90331 4999 ft 197 kts 71°
2026-05-07 18:47 22.31747 113.91715 5003 ft 197 kts 71°
2026-05-07 18:47 22.32195 113.93110 5000 ft 197 kts 71°
2026-05-07 18:47 22.32646 113.94511 4989 ft 196 kts 71°
2026-05-07 18:47 22.33093 113.95902 4965 ft 197 kts 70°
2026-05-07 18:48 22.33705 113.97213 4950 ft 195 kts 49°
2026-05-07 18:48 22.34730 113.98188 4943 ft 195 kts 36°
2026-05-07 18:48 22.35819 113.99078 4950 ft 194 kts 38°
2026-05-07 18:48 22.36863 114.00022 4953 ft 196 kts 40°
2026-05-07 18:49 22.37904 114.01003 4956 ft 197 kts 41°
2026-05-07 18:49 22.38956 114.01989 4960 ft 199 kts 40°
2026-05-07 18:49 22.40000 114.02962 4967 ft 197 kts 40°
2026-05-07 18:49 22.41041 114.03935 4974 ft 199 kts 40°
2026-05-07 18:50 22.42094 114.04919 4981 ft 198 kts 40°
2026-05-07 18:50 22.43131 114.05889 4978 ft 197 kts 40°
2026-05-07 18:50 22.44179 114.06866 4987 ft 196 kts 40°
2026-05-07 18:50 22.45211 114.07831 4988 ft 196 kts 40°
2026-05-07 18:51 22.46191 114.08861 4985 ft 197 kts 52°
2026-05-07 18:51 22.46818 114.10179 4973 ft 197 kts 70°
2026-05-07 18:51 22.47277 114.11591 4994 ft 196 kts 70°
2026-05-07 18:51 22.47771 114.12965 4998 ft 196 kts 68°
2026-05-07 18:52 22.48297 114.14332 5001 ft 197 kts 67°
2026-05-07 18:52 22.48826 114.15698 5015 ft 196 kts 68°
2026-05-07 18:52 22.49309 114.17064 5017 ft 197 kts 75°
2026-05-07 18:52 22.49376 114.18542 4971 ft 197 kts 106°
2026-05-07 18:53 22.48752 114.19835 4959 ft 193 kts 131°
2026-05-07 18:53 22.47790 114.20861 4981 ft 194 kts 139°
2026-05-07 18:53 22.46772 114.21802 5000 ft 194 kts 140°
2026-05-07 18:53 22.45737 114.22772 5004 ft 195 kts 139°
2026-05-07 18:54 22.44721 114.23745 5005 ft 195 kts 139°
2026-05-07 18:54 22.43700 114.24723 5009 ft 196 kts 139°
2026-05-07 18:54 22.42677 114.25701 5012 ft 196 kts 139°
2026-05-07 18:54 22.41656 114.26673 5025 ft 194 kts 139°
2026-05-07 18:55 22.40634 114.27644 5024 ft 195 kts 139°
2026-05-07 18:55 22.39609 114.28618 5027 ft 194 kts 139°
2026-05-07 18:55 22.38596 114.29585 5026 ft 194 kts 139°
2026-05-07 18:55 22.37579 114.30556 5026 ft 194 kts 139°
2026-05-07 18:56 22.36558 114.31526 5030 ft 195 kts 139°
2026-05-07 18:56 22.35533 114.32502 5032 ft 195 kts 139°
2026-05-07 18:56 22.34516 114.33471 5035 ft 195 kts 139°
2026-05-07 18:56 22.33492 114.34443 5038 ft 195 kts 140°
2026-05-07 18:57 22.32350 114.35239 5017 ft 196 kts 161°
2026-05-07 18:57 22.31000 114.35354 4972 ft 194 kts 193°
2026-05-07 18:57 22.29741 114.34841 4981 ft 193 kts 211°
2026-05-07 18:57 22.28670 114.33966 4985 ft 193 kts 224°
2026-05-07 18:58 22.27714 114.32946 5000 ft 193 kts 225°
2026-05-07 18:58 22.26738 114.31925 5010 ft 194 kts 224°
2026-05-07 18:58 22.25748 114.30930 5021 ft 194 kts 223°
2026-05-07 18:58 22.24743 114.29929 5029 ft 193 kts 223°
2026-05-07 18:59 22.23770 114.28957 5041 ft 192 kts 223°
2026-05-07 18:59 22.22781 114.27966 5048 ft 193 kts 223°
2026-05-07 18:59 22.21794 114.26977 5064 ft 193 kts 223°
2026-05-07 18:59 22.20813 114.25995 5076 ft 191 kts 223°
2026-05-07 19:00 22.19823 114.25005 5087 ft 191 kts 223°
2026-05-07 19:00 22.18832 114.24015 5093 ft 192 kts 223°
2026-05-07 19:00 22.17849 114.23032 5106 ft 192 kts 223°
2026-05-07 19:00 22.16873 114.22042 5118 ft 192 kts 226°
2026-05-07 19:01 22.16083 114.20891 5112 ft 192 kts 242°
2026-05-07 19:01 22.15470 114.19594 5124 ft 193 kts 243°
2026-05-07 19:01 22.14853 114.18311 5142 ft 193 kts 242°
2026-05-07 19:01 22.14211 114.17045 5154 ft 192 kts 241°
2026-05-07 19:02 22.13552 114.15765 5166 ft 193 kts 241°
2026-05-07 19:02 22.12899 114.14490 5176 ft 193 kts 241°
2026-05-07 19:02 22.12252 114.13224 5190 ft 193 kts 241°
2026-05-07 19:02 22.11599 114.11945 5199 ft 193 kts 241°
2026-05-07 19:03 22.10956 114.10686 5209 ft 193 kts 242°
2026-05-07 19:03 22.10305 114.09414 5227 ft 192 kts 242°
2026-05-07 19:03 22.09658 114.08150 5239 ft 192 kts 242°
2026-05-07 19:03 22.09009 114.06883 5250 ft 193 kts 242°
2026-05-07 19:04 22.08362 114.05617 5259 ft 192 kts 242°
2026-05-07 19:04 22.07712 114.04348 5274 ft 193 kts 242°
2026-05-07 19:04 22.07063 114.03080 5290 ft 193 kts 241°
2026-05-07 19:04 22.06409 114.01804 5304 ft 193 kts 242°
2026-05-07 19:05 22.05758 114.00535 5314 ft 193 kts 242°
2026-05-07 19:05 22.05109 113.99264 5325 ft 194 kts 242°
2026-05-07 19:05 22.04453 113.97980 5341 ft 195 kts 241°
2026-05-07 19:05 22.03805 113.96713 5363 ft 193 kts 241°
2026-05-07 19:06 22.03147 113.95428 5384 ft 194 kts 242°
2026-05-07 19:06 22.02929 113.92654 5323 ft 195 kts 297°
2026-05-07 19:06 22.03612 113.91396 5351 ft 194 kts 300°
2026-05-07 19:07 22.04287 113.90131 5368 ft 193 kts 298°
2026-05-07 19:07 22.04940 113.88845 5380 ft 194 kts 298°
2026-05-07 19:07 22.05589 113.87570 5394 ft 193 kts 298°
2026-05-07 19:07 22.06239 113.86310 5405 ft 193 kts 298°
2026-05-07 19:08 22.06894 113.85041 5425 ft 192 kts 298°
2026-05-07 19:08 22.07538 113.83791 5435 ft 192 kts 298°
2026-05-07 19:08 22.08195 113.82514 5450 ft 193 kts 298°
2026-05-07 19:08 22.08847 113.81247 5473 ft 193 kts 298°
2026-05-07 19:09 22.09493 113.79990 5493 ft 195 kts 298°
2026-05-07 19:09 22.10152 113.78706 5512 ft 195 kts 298°
2026-05-07 19:09 22.10811 113.77414 5535 ft 195 kts 297°
2026-05-07 19:09 22.11430 113.76122 5554 ft 194 kts 295°
2026-05-07 19:10 22.11985 113.74805 5570 ft 193 kts 292°
2026-05-07 19:10 22.12469 113.73447 5585 ft 192 kts 288°
2026-05-07 19:10 22.12870 113.72069 5598 ft 192 kts 285°
2026-05-07 19:10 22.13190 113.70670 5615 ft 192 kts 281°
2026-05-07 19:11 22.13428 113.69251 5638 ft 192 kts 278°
2026-05-07 19:11 22.13578 113.67823 5659 ft 192 kts 274°
2026-05-07 19:11 22.13645 113.66373 5675 ft 191 kts 271°
2026-05-07 19:11 22.13626 113.64944 5703 ft 191 kts 267°
2026-05-07 19:12 22.13523 113.63500 5721 ft 192 kts 264°
2026-05-07 19:12 22.13334 113.62063 5740 ft 193 kts 260°
2026-05-07 19:12 22.13062 113.60657 5756 ft 193 kts 256°
2026-05-07 19:12 22.12704 113.59253 5776 ft 193 kts 253°
2026-05-07 19:13 22.12273 113.57897 5796 ft 192 kts 249°
2026-05-07 19:13 22.11761 113.56549 5814 ft 193 kts 246°
2026-05-07 19:13 22.11168 113.55227 5828 ft 194 kts 242°
2026-05-07 19:13 22.10512 113.53979 5855 ft 191 kts 239°
2026-05-07 19:14 22.09780 113.52774 5872 ft 191 kts 235°
2026-05-07 19:14 22.08988 113.51608 5893 ft 193 kts 232°
2026-05-07 19:14 22.08134 113.50485 5919 ft 193 kts 229°
2026-05-07 19:14 22.07214 113.49420 5940 ft 193 kts 226°
2026-05-07 19:15 22.06235 113.48431 5957 ft 194 kts 222°
2026-05-07 19:15 22.05177 113.47493 5984 ft 193 kts 218°
2026-05-07 19:15 22.04071 113.46644 6005 ft 195 kts 214°
2026-05-07 19:15 22.02925 113.45879 6032 ft 195 kts 210°
2026-05-07 19:16 22.01713 113.45177 6051 ft 195 kts 207°
2026-05-07 19:16 22.00463 113.44555 6074 ft 196 kts 203°
2026-05-07 19:16 21.99201 113.44029 6097 ft 195 kts 200°
2026-05-07 19:16 21.97883 113.43585 6124 ft 196 kts 196°
2026-05-07 19:17 21.96546 113.43241 6146 ft 197 kts 192°
2026-05-07 19:17 21.95190 113.42997 6169 ft 197 kts 189°
2026-05-07 19:17 21.93818 113.42849 6191 ft 198 kts 185°
2026-05-07 19:17 21.92430 113.42795 6213 ft 198 kts 181°
2026-05-07 19:18 21.91044 113.42832 6236 ft 198 kts 178°
2026-05-07 19:18 21.89658 113.42965 6259 ft 198 kts 174°
2026-05-07 19:18 21.88289 113.43191 6281 ft 198 kts 171°
2026-05-07 19:18 21.86938 113.43511 6295 ft 199 kts 167°
2026-05-07 19:19 21.85592 113.43929 6314 ft 199 kts 163°
2026-05-07 19:19 21.84284 113.44433 6330 ft 199 kts 159°
2026-05-07 19:19 21.83012 113.45023 6345 ft 199 kts 155°
2026-05-07 19:19 21.81774 113.45705 6362 ft 199 kts 152°
2026-05-07 19:20 21.80561 113.46478 6382 ft 199 kts 148°
2026-05-07 19:20 21.79418 113.47315 6397 ft 200 kts 144°
2026-05-07 19:20 21.78311 113.48235 6413 ft 200 kts 141°
2026-05-07 19:20 21.77260 113.49229 6432 ft 200 kts 137°
2026-05-07 19:21 21.76268 113.50299 6451 ft 201 kts 134°
2026-05-07 19:21 21.75340 113.51444 6465 ft 201 kts 130°
2026-05-07 19:21 21.74499 113.52631 6480 ft 201 kts 126°
2026-05-07 19:21 21.73712 113.53906 6504 ft 201 kts 122°
2026-05-07 19:22 21.73013 113.55215 6524 ft 201 kts 118°
2026-05-07 19:22 21.72385 113.56576 6540 ft 202 kts 115°
2026-05-07 19:22 21.71841 113.57959 6562 ft 202 kts 111°
2026-05-07 19:22 21.71372 113.59396 6577 ft 202 kts 108°
2026-05-07 19:23 21.70994 113.60845 6600 ft 200 kts 104°
2026-05-07 19:23 21.70702 113.62325 6614 ft 200 kts 100°
2026-05-07 19:23 21.70499 113.63796 6635 ft 200 kts 97°
2026-05-07 19:23 21.70385 113.65303 6658 ft 202 kts 93°
2026-05-07 19:24 21.70364 113.66807 6681 ft 201 kts 89°
2026-05-07 19:24 21.70433 113.68316 6704 ft 202 kts 85°
2026-05-07 19:24 21.70592 113.69823 6727 ft 203 kts 82°
2026-05-07 19:24 21.70842 113.71340 6749 ft 203 kts 78°
2026-05-07 19:25 21.71174 113.72817 6774 ft 202 kts 74°
2026-05-07 19:25 21.71585 113.74260 6797 ft 203 kts 70°
2026-05-07 19:25 21.72086 113.75693 6826 ft 203 kts 66°
2026-05-07 19:25 21.72664 113.77074 6854 ft 203 kts 63°
2026-05-07 19:26 21.73330 113.78432 6870 ft 204 kts 59°
2026-05-07 19:26 21.74075 113.79737 6896 ft 203 kts 56°
2026-05-07 19:26 21.74823 113.80878 6915 ft 203 kts 52°
2026-05-07 19:26 21.75714 113.82067 6939 ft 202 kts 49°
2026-05-07 19:27 21.76681 113.83198 6981 ft 202 kts 45°
2026-05-07 19:27 21.77745 113.84286 7098 ft 225 kts 41°
2026-05-07 19:27 21.79009 113.85431 7337 ft 248 kts 38°
2026-05-07 19:27 21.80421 113.86592 7681 ft 263 kts 36°
2026-05-07 19:28 21.81947 113.87746 8064 ft 268 kts 33°
2026-05-07 19:28 21.83508 113.88841 8447 ft 269 kts 31°
2026-05-07 19:28 21.85130 113.89898 8836 ft 271 kts 29°
2026-05-07 19:28 21.86758 113.91009 8876 ft 287 kts 39°
2026-05-07 19:29 21.87907 113.92783 8695 ft 291 kts 71°
2026-05-07 19:29 21.88108 113.94925 8524 ft 291 kts 94°
2026-05-07 19:29 21.87861 113.97091 8342 ft 289 kts 97°
2026-05-07 19:29 21.87781 113.99255 8160 ft 288 kts 87°
2026-05-07 19:30 21.88042 114.01376 7982 ft 286 kts 77°
2026-05-07 19:30 21.88619 114.03434 7802 ft 287 kts 70°
2026-05-07 19:30 21.89394 114.05427 7618 ft 285 kts 65°
2026-05-07 19:30 21.90239 114.07357 7440 ft 284 kts 64°
2026-05-07 19:31 21.91103 114.09279 7258 ft 282 kts 64°
2026-05-07 19:31 21.91951 114.11175 7079 ft 282 kts 64°
2026-05-07 19:31 21.92798 114.13095 6899 ft 282 kts 64°
2026-05-07 19:31 21.93831 114.14867 6712 ft 279 kts 45°
2026-05-07 19:32 21.95488 114.15916 6535 ft 277 kts 15°
2026-05-07 19:32 21.97396 114.16046 6356 ft 274 kts 352°
2026-05-07 19:32 21.99208 114.15446 6176 ft 272 kts 334°
2026-05-07 19:32 22.00795 114.14343 5994 ft 271 kts 316°
2026-05-07 19:33 22.01824 114.12682 5816 ft 269 kts 291°
2026-05-07 19:33 22.02354 114.10729 5636 ft 270 kts 284°
2026-05-07 19:33 22.02802 114.08772 5456 ft 270 kts 284°
2026-05-07 19:33 22.03269 114.06799 5273 ft 269 kts 284°
2026-05-07 19:34 22.03750 114.04863 5094 ft 269 kts 285°
2026-05-07 19:34 22.04244 114.02926 4913 ft 269 kts 285°
2026-05-07 19:34 22.04742 114.00989 4730 ft 267 kts 285°
2026-05-07 19:34 22.05241 113.99046 4546 ft 266 kts 285°
2026-05-07 19:35 22.05738 113.97118 4364 ft 265 kts 285°
2026-05-07 19:35 22.06227 113.95215 4186 ft 266 kts 285°
2026-05-07 19:35 22.06718 113.93300 4002 ft 265 kts 285°
2026-05-07 19:35 22.07212 113.91368 3818 ft 265 kts 285°
2026-05-07 19:36 22.07699 113.89462 3637 ft 264 kts 285°
2026-05-07 19:36 22.08191 113.87534 3456 ft 264 kts 285°
2026-05-07 19:36 22.08676 113.85638 3275 ft 265 kts 285°
2026-05-07 19:36 22.09168 113.83714 3093 ft 264 kts 285°
2026-05-07 19:37 22.09650 113.81828 2998 ft 262 kts 285°
2026-05-07 19:37 22.10133 113.79942 2991 ft 253 kts 286°
2026-05-07 19:37 22.10754 113.78234 2986 ft 234 kts 300°
2026-05-07 19:38 22.11024 113.77792 2984 ft 229 kts 308°
2026-05-07 19:38 22.14347 113.75771 2973 ft 186 kts 336°
2026-05-07 19:38 22.15504 113.75192 2976 ft 184 kts 335°
2026-05-07 19:38 22.16657 113.74609 2975 ft 177 kts 335°
2026-05-07 19:39 22.17760 113.74057 2976 ft 177 kts 335°
2026-05-07 19:39 22.18886 113.73495 2975 ft 177 kts 335°
2026-05-07 19:39 22.20015 113.72932 2976 ft 178 kts 336°
2026-05-07 19:39 22.21190 113.72530 2969 ft 175 kts 358°
2026-05-07 19:40 22.22296 113.72822 2976 ft 176 kts 33°
2026-05-07 19:40 22.23301 113.73594 2978 ft 175 kts 37°
2026-05-07 19:40 22.24308 113.74340 2976 ft 175 kts 33°
2026-05-07 19:40 22.25249 113.74990 2975 ft 174 kts 33°
2026-05-07 19:41 22.26243 113.75770 2849 ft 174 kts 49°
2026-05-07 19:41 22.26847 113.76894 2523 ft 177 kts 70°
2026-05-07 19:41 22.27277 113.78139 2245 ft 177 kts 70°
2026-05-07 19:41 22.27700 113.79365 2044 ft 167 kts 71°
2026-05-07 19:42 22.28070 113.80500 1795 ft 156 kts 72°
2026-05-07 19:42 22.28412 113.81567 1590 ft 148 kts 72°
2026-05-07 19:42 22.28759 113.82627 1416 ft 150 kts 72°
2026-05-07 19:42 22.29103 113.83683 1218 ft 148 kts 72°
2026-05-07 19:43 22.29441 113.84734 1027 ft 149 kts 71°
2026-05-07 19:43 22.29785 113.85787 831 ft 147 kts 71°
2026-05-07 19:43 22.30124 113.86834 638 ft 148 kts 71°
2026-05-07 19:43 22.30467 113.87889 446 ft 147 kts 71°
2026-05-07 19:44 22.30808 113.88907 207 ft 146 kts 70°
2026-05-07 19:44 22.31137 113.89946 60 ft 137 kts 71°
2026-05-07 19:44 22.31404 113.90773 34 ft 85 kts 69°
2026-05-07 19:44 22.31530 113.91155 34 ft 30 kts 71°
2026-05-07 19:45 22.31594 113.91348 34 ft 26 kts 75°
2026-05-07 19:45 22.31646 113.91528 34 ft 21 kts 74°
2026-05-07 19:45 22.31652 113.91645 34 ft 14 kts 93°
2026-05-07 19:45 22.31642 113.91745 34 ft 13 kts 100°
2026-05-07 19:46 22.31627 113.91841 34 ft 12 kts 102°
2026-05-07 19:46 22.31610 113.91936 34 ft 12 kts 97°
2026-05-07 19:46 22.31597 113.92026 34 ft 11 kts 131°
2026-05-07 19:46 22.31524 113.92061 34 ft 11 kts 161°
2026-05-07 19:47 22.31453 113.92085 34 ft 8 kts 158°
2026-05-07 19:47 22.31413 113.92124 34 ft 7 kts 115°
2026-05-07 19:47 22.31390 113.92176 34 ft 7 kts 117°
2026-05-07 19:47 22.31367 113.92226 34 ft 7 kts 115°
2026-05-07 19:48 22.31347 113.92276 34 ft 7 kts 112°
2026-05-07 19:48 22.31326 113.92324 34 ft 6 kts 126°
2026-05-07 19:48 22.31310 113.92350 34 ft 4 kts 117°
2026-05-07 19:48 22.31298 113.92378 34 ft 4 kts 115°
2026-05-07 19:49 22.31288 113.92404 34 ft 3 kts 97°
2026-05-07 19:49 22.31293 113.92431 34 ft 3 kts 68°
2026-05-07 19:49 22.31308 113.92446 34 ft 2 kts 15°
2026-05-07 19:49 22.31326 113.92453 34 ft 2 kts 27°
2026-05-07 19:50 22.31341 113.92461 34 ft 1 kts 25°
2026-05-07 19:50 22.31351 113.92467 34 ft 1 kts 25°
2026-05-07 19:50 22.31362 113.92472 34 ft 1 kts 25°
2026-05-07 19:50 22.31366 113.92474 34 ft 0 kts 26°